Private Wetterstation Wechselburg
Wetterdaten: Donnerstag, 18.10.2012
Datum Zeit Temp. +2m Bodentemp. Temp.+5cm Temp. Wind Windchill X Diff Temp. Feuchte +2m Feuchte +5cm Sonnenschein Luftdruck Regen Wind Richtung Richtung Sonnenschein UV Taupunkt Windchill Windben
18.10.2012 00:00 10,8 C 16,1 C 10,4 C 10,4 C 9,6 C 0,0 C 79 % 84 % 0 % 1015,9 hPa 0,0 l/m 0,0 km/h (0 Bft) N 360 0 min 0,0 UV-I 7,3 C 9,6 C 0,0 km/h (0 Bft)
18.10.2012 00:05 10,7 C 16,1 C 10,2 C 10,3 C 9,6 C 0,0 C 80 % 84 % 0 % 1015,9 hPa 0,0 l/m 0,0 km/h (0 Bft) O 90 0 min 0,0 UV-I 7,4 C 9,6 C 0,0 km/h (0 Bft)
18.10.2012 00:10 10,4 C 16,1 C 9,9 C 10,1 C 9,6 C 0,0 C 80 % 84 % 0 % 1015,9 hPa 0,0 l/m 0,0 km/h (0 Bft) O-NO 67 0 min 0,0 UV-I 7,1 C 9,6 C 0,0 km/h (0 Bft)
18.10.2012 00:15 10,2 C 16,2 C 9,8 C 10,0 C 9,5 C 0,0 C 80 % 84 % 0 % 1015,9 hPa 0,0 l/m 0,0 km/h (0 Bft) NO 45 0 min 0,0 UV-I 6,9 C 9,5 C 0,0 km/h (0 Bft)
18.10.2012 00:20 9,9 C 16,2 C 9,6 C 9,7 C 9,2 C 0,0 C 80 % 85 % 0 % 1015,9 hPa 0,0 l/m 0,2 km/h (0 Bft) O-NO 67 0 min 0,0 UV-I 6,6 C 9,2 C 1,6 km/h (1 Bft)
18.10.2012 00:25 9,7 C 16,2 C 9,5 C 9,5 C 9,1 C 0,0 C 80 % 85 % 0 % 1015,7 hPa 0,0 l/m 0,6 km/h (0 Bft) O-NO 67 0 min 0,0 UV-I 6,4 C 9,1 C 0,0 km/h (0 Bft)
18.10.2012 00:30 9,4 C 16,2 C 9,3 C 9,3 C 9,0 C 0,0 C 81 % 85 % 0 % 1015,7 hPa 0,0 l/m 0,8 km/h (0 Bft) N-NW 337 0 min 0,0 UV-I 6,3 C 9,0 C 2,4 km/h (1 Bft)
18.10.2012 00:35 9,2 C 16,2 C 9,2 C 9,1 C 8,8 C 0,0 C 81 % 85 % 0 % 1015,7 hPa 0,0 l/m 0,5 km/h (0 Bft) N-NW 337 0 min 0,0 UV-I 6,1 C 8,8 C 0,0 km/h (0 Bft)
18.10.2012 00:41 8,8 C 16,2 C 9,0 C 8,7 C 8,6 C 0,0 C 82 % 85 % 0 % 1016,1 hPa 0,0 l/m 0,0 km/h (0 Bft) N 0 0 min 0,0 UV-I 5,9 C 8,6 C 0,0 km/h (0 Bft)
18.10.2012 00:55 8,5 C 16,3 C 8,8 C 8,5 C 8,5 C 0,0 C 83 % 86 % 0 % 1016,1 hPa 0,0 l/m 1,3 km/h (1 Bft) O-NO 67 0 min 0,0 UV-I 5,8 C 8,5 C 2,9 km/h (1 Bft)
18.10.2012 01:00 8,5 C 16,3 C 8,8 C 8,6 C 8,6 C 0,1 C 83 % 87 % 0 % 1016,1 hPa 0,0 l/m 1,4 km/h (1 Bft) NO 45 0 min 0,0 UV-I 5,8 C 8,6 C 3,7 km/h (1 Bft)
18.10.2012 01:05 8,5 C 16,2 C 8,8 C 8,5 C 8,5 C 0,0 C 83 % 87 % 0 % 1016,0 hPa 0,0 l/m 0,6 km/h (0 Bft) NO 45 0 min 0,0 UV-I 5,8 C 8,5 C 0,0 km/h (0 Bft)
18.10.2012 01:10 8,4 C 16,4 C 8,6 C 8,4 C 8,3 C 0,0 C 83 % 87 % 0 % 1016,0 hPa 0,0 l/m 0,0 km/h (0 Bft) O-NO 67 0 min 0,0 UV-I 5,7 C 8,3 C 1,6 km/h (1 Bft)
18.10.2012 01:15 8,3 C 16,4 C 8,5 C 8,3 C 8,2 C 0,0 C 83 % 87 % 0 % 1016,0 hPa 0,0 l/m 0,0 km/h (0 Bft) S 180 0 min 0,0 UV-I 5,6 C 8,2 C 0,0 km/h (0 Bft)
18.10.2012 01:20 8,0 C 16,3 C 8,4 C 8,0 C 7,9 C 0,0 C 83 % 87 % 0 % 1016,0 hPa 0,0 l/m 0,0 km/h (0 Bft) NW 315 0 min 0,0 UV-I 5,3 C 7,9 C 0,0 km/h (0 Bft)
18.10.2012 01:25 8,0 C 16,3 C 8,4 C 7,9 C 7,7 C 0,0 C 83 % 87 % 0 % 1015,8 hPa 0,0 l/m 0,0 km/h (0 Bft) W 270 0 min 0,0 UV-I 5,3 C 7,7 C 0,0 km/h (0 Bft)
18.10.2012 01:30 7,9 C 16,3 C 8,2 C 7,7 C 7,4 C 0,0 C 83 % 87 % 0 % 1015,8 hPa 0,0 l/m 0,0 km/h (0 Bft) NW 315 0 min 0,0 UV-I 5,2 C 7,4 C 0,0 km/h (0 Bft)
18.10.2012 01:35 7,6 C 16,3 C 8,1 C 7,5 C 7,2 C 0,0 C 83 % 87 % 0 % 1015,8 hPa 0,0 l/m 0,0 km/h (0 Bft) NW 315 0 min 0,0 UV-I 4,9 C 7,2 C 0,0 km/h (0 Bft)
18.10.2012 01:40 7,5 C 16,3 C 7,9 C 7,4 C 7,1 C 0,0 C 83 % 87 % 0 % 1015,8 hPa 0,0 l/m 0,0 km/h (0 Bft) NO 45 0 min 0,0 UV-I 4,8 C 7,1 C 0,0 km/h (0 Bft)
18.10.2012 01:45 7,3 C 16,4 C 7,9 C 7,2 C 7,1 C 0,0 C 83 % 87 % 0 % 1015,8 hPa 0,0 l/m 0,0 km/h (0 Bft) O-NO 67 0 min 0,0 UV-I 4,6 C 7,1 C 0,0 km/h (0 Bft)
18.10.2012 01:50 7,2 C 16,3 C 7,7 C 7,1 C 7,0 C 0,0 C 84 % 87 % 0 % 1015,8 hPa 0,0 l/m 0,0 km/h (0 Bft) O 90 0 min 0,0 UV-I 4,7 C 7,0 C 0,0 km/h (0 Bft)
18.10.2012 01:55 7,1 C 16,3 C 7,6 C 7,1 C 7,0 C 0,0 C 84 % 87 % 0 % 1015,8 hPa 0,0 l/m 0,0 km/h (0 Bft) O 90 0 min 0,0 UV-I 4,6 C 7,0 C 0,0 km/h (0 Bft)
18.10.2012 02:00 7,0 C 16,3 C 7,5 C 7,0 C 6,9 C 0,0 C 85 % 88 % 0 % 1015,8 hPa 0,0 l/m 0,0 km/h (0 Bft) N-NO 22 0 min 0,0 UV-I 4,7 C 6,9 C 0,0 km/h (0 Bft)
18.10.2012 02:05 6,9 C 16,3 C 7,5 C 6,9 C 6,9 C 0,0 C 85 % 88 % 0 % 1016,1 hPa 0,0 l/m 0,0 km/h (0 Bft) O-NO 67 0 min 0,0 UV-I 4,6 C 6,9 C 0,0 km/h (0 Bft)
18.10.2012 02:10 6,8 C 16,3 C 7,5 C 6,8 C 6,8 C 0,0 C 85 % 88 % 0 % 1016,1 hPa 0,0 l/m 0,0 km/h (0 Bft) O-NO 67 0 min 0,0 UV-I 4,5 C 6,8 C 0,0 km/h (0 Bft)
18.10.2012 02:15 6,7 C 16,3 C 7,3 C 6,7 C 6,7 C 0,0 C 85 % 88 % 0 % 1016,1 hPa 0,0 l/m 0,0 km/h (0 Bft) N-NW 337 0 min 0,0 UV-I 4,4 C 6,7 C 0,0 km/h (0 Bft)
18.10.2012 02:20 6,5 C 16,3 C 7,2 C 6,6 C 6,6 C 0,1 C 85 % 88 % 0 % 1016,1 hPa 0,0 l/m 0,0 km/h (0 Bft) N-NW 337 0 min 0,0 UV-I 4,2 C 6,6 C 0,0 km/h (0 Bft)
18.10.2012 02:25 6,4 C 16,3 C 7,2 C 6,4 C 6,4 C 0,0 C 85 % 88 % 0 % 1016,2 hPa 0,0 l/m 0,0 km/h (0 Bft) N-NW 337 0 min 0,0 UV-I 4,1 C 6,4 C 0,0 km/h (0 Bft)
18.10.2012 02:30 6,3 C 16,3 C 7,2 C 6,3 C 6,3 C 0,0 C 85 % 88 % 0 % 1016,2 hPa 0,0 l/m 0,0 km/h (0 Bft) N-NO 22 0 min 0,0 UV-I 4,0 C 6,3 C 0,0 km/h (0 Bft)
18.10.2012 02:35 6,2 C 16,3 C 7,1 C 6,2 C 6,2 C 0,0 C 85 % 88 % 0 % 1016,2 hPa 0,0 l/m 0,0 km/h (0 Bft) N-NO 22 0 min 0,0 UV-I 3,9 C 6,2 C 0,0 km/h (0 Bft)
18.10.2012 02:40 6,0 C 16,3 C 7,1 C 6,1 C 6,1 C 0,1 C 85 % 88 % 0 % 1016,2 hPa 0,0 l/m 0,0 km/h (0 Bft) O-NO 67 0 min 0,0 UV-I 3,7 C 6,1 C 0,0 km/h (0 Bft)
18.10.2012 02:45 6,1 C 16,3 C 6,9 C 6,3 C 6,3 C 0,2 C 86 % 88 % 0 % 1016,1 hPa 0,0 l/m 0,0 km/h (0 Bft) O-NO 67 0 min 0,0 UV-I 3,9 C 6,3 C 0,0 km/h (0 Bft)
18.10.2012 02:50 6,1 C 16,3 C 6,9 C 6,4 C 6,4 C 0,3 C 86 % 89 % 0 % 1016,1 hPa 0,0 l/m 0,0 km/h (0 Bft) O-NO 67 0 min 0,0 UV-I 3,9 C 6,4 C 0,0 km/h (0 Bft)
18.10.2012 02:55 6,0 C 16,3 C 6,9 C 6,4 C 6,4 C 0,4 C 87 % 89 % 0 % 1016,1 hPa 0,0 l/m 0,0 km/h (0 Bft) O 90 0 min 0,0 UV-I 4,0 C 6,4 C 0,0 km/h (0 Bft)
18.10.2012 03:00 6,0 C 16,3 C 6,8 C 6,3 C 6,3 C 0,3 C 87 % 89 % 0 % 1016,1 hPa 0,0 l/m 0,0 km/h (0 Bft) O-NO 67 0 min 0,0 UV-I 4,0 C 6,3 C 0,0 km/h (0 Bft)
18.10.2012 03:05 5,9 C 16,3 C 6,8 C 6,2 C 6,2 C 0,3 C 87 % 89 % 0 % 1016,0 hPa 0,0 l/m 0,0 km/h (0 Bft) O 90 0 min 0,0 UV-I 3,9 C 6,2 C 0,0 km/h (0 Bft)
18.10.2012 03:10 5,9 C 16,3 C 6,8 C 6,1 C 6,1 C 0,2 C 87 % 89 % 0 % 1016,0 hPa 0,0 l/m 0,0 km/h (0 Bft) O 90 0 min 0,0 UV-I 3,9 C 6,1 C 0,0 km/h (0 Bft)
18.10.2012 03:15 5,7 C 16,2 C 6,8 C 6,1 C 6,1 C 0,4 C 87 % 89 % 0 % 1016,0 hPa 0,0 l/m 0,0 km/h (0 Bft) W 270 0 min 0,0 UV-I 3,7 C 6,1 C 1,6 km/h (1 Bft)
18.10.2012 03:20 5,6 C 16,3 C 6,7 C 6,0 C 6,0 C 0,4 C 87 % 89 % 0 % 1016,0 hPa 0,0 l/m 0,2 km/h (0 Bft) O 90 0 min 0,0 UV-I 3,6 C 6,0 C 0,0 km/h (0 Bft)
18.10.2012 03:25 5,6 C 16,2 C 6,7 C 5,9 C 5,9 C 0,3 C 87 % 89 % 0 % 1016,0 hPa 0,0 l/m 0,2 km/h (0 Bft) O 90 0 min 0,0 UV-I 3,6 C 5,9 C 0,0 km/h (0 Bft)
18.10.2012 03:30 5,5 C 16,2 C 6,7 C 5,9 C 5,9 C 0,4 C 87 % 90 % 0 % 1016,0 hPa 0,0 l/m 0,0 km/h (0 Bft) SO 135 0 min 0,0 UV-I 3,5 C 5,9 C 0,0 km/h (0 Bft)
18.10.2012 03:35 5,4 C 16,2 C 6,6 C 5,9 C 5,9 C 0,5 C 87 % 89 % 0 % 1016,0 hPa 0,0 l/m 0,0 km/h (0 Bft) O 90 0 min 0,0 UV-I 3,4 C 5,9 C 0,0 km/h (0 Bft)
18.10.2012 03:40 5,5 C 16,2 C 6,5 C 6,0 C 6,0 C 0,5 C 87 % 89 % 0 % 1016,0 hPa 0,0 l/m 0,0 km/h (0 Bft) O 90 0 min 0,0 UV-I 3,5 C 6,0 C 0,0 km/h (0 Bft)
18.10.2012 03:45 5,5 C 16,2 C 6,5 C 6,1 C 6,1 C 0,6 C 87 % 89 % 0 % 1015,9 hPa 0,0 l/m 0,0 km/h (0 Bft) O-SO 112 0 min 0,0 UV-I 3,5 C 6,1 C 0,0 km/h (0 Bft)
18.10.2012 03:50 5,5 C 16,3 C 6,4 C 6,1 C 6,1 C 0,6 C 88 % 90 % 0 % 1015,9 hPa 0,0 l/m 0,0 km/h (0 Bft) O-NO 67 0 min 0,0 UV-I 3,7 C 6,1 C 0,0 km/h (0 Bft)
18.10.2012 03:55 5,4 C 16,3 C 6,4 C 6,1 C 6,1 C 0,7 C 88 % 90 % 0 % 1015,9 hPa 0,0 l/m 0,0 km/h (0 Bft) O-NO 67 0 min 0,0 UV-I 3,6 C 6,1 C 0,0 km/h (0 Bft)
18.10.2012 04:00 5,5 C 16,3 C 6,4 C 6,0 C 6,0 C 0,5 C 88 % 90 % 0 % 1015,9 hPa 0,0 l/m 0,0 km/h (0 Bft) O-NO 67 0 min 0,0 UV-I 3,7 C 6,0 C 0,0 km/h (0 Bft)
18.10.2012 04:05 5,5 C 16,3 C 6,3 C 6,0 C 6,0 C 0,5 C 88 % 90 % 0 % 1016,8 hPa 0,0 l/m 0,0 km/h (0 Bft) O 90 0 min 0,0 UV-I 3,7 C 6,0 C 0,0 km/h (0 Bft)
18.10.2012 04:10 5,5 C 16,3 C 6,3 C 6,0 C 6,0 C 0,5 C 88 % 90 % 0 % 1016,8 hPa 0,0 l/m 0,0 km/h (0 Bft) O-NO 67 0 min 0,0 UV-I 3,7 C 6,0 C 0,0 km/h (0 Bft)
18.10.2012 04:15 5,3 C 16,3 C 6,4 C 6,0 C 6,0 C 0,7 C 88 % 90 % 0 % 1016,8 hPa 0,0 l/m 0,0 km/h (0 Bft) O-NO 67 0 min 0,0 UV-I 3,5 C 6,0 C 0,0 km/h (0 Bft)
18.10.2012 04:20 5,3 C 16,3 C 6,5 C 6,0 C 6,0 C 0,7 C 88 % 90 % 0 % 1016,8 hPa 0,0 l/m 0,0 km/h (0 Bft) O-NO 67 0 min 0,0 UV-I 3,5 C 6,0 C 0,0 km/h (0 Bft)
18.10.2012 04:25 5,3 C 16,3 C 6,3 C 6,0 C 6,0 C 0,7 C 88 % 90 % 0 % 1016,2 hPa 0,0 l/m 0,0 km/h (0 Bft) O-NO 67 0 min 0,0 UV-I 3,5 C 6,0 C 0,0 km/h (0 Bft)
18.10.2012 04:30 5,5 C 16,3 C 6,3 C 6,1 C 6,1 C 0,6 C 89 % 90 % 0 % 1016,2 hPa 0,0 l/m 0,0 km/h (0 Bft) NW 315 0 min 0,0 UV-I 3,8 C 6,1 C 0,0 km/h (0 Bft)
18.10.2012 04:35 5,5 C 16,3 C 6,3 C 6,1 C 6,1 C 0,6 C 89 % 90 % 0 % 1016,2 hPa 0,0 l/m 0,0 km/h (0 Bft) S 180 0 min 0,0 UV-I 3,8 C 6,1 C 0,0 km/h (0 Bft)
18.10.2012 04:40 5,5 C 16,3 C 6,5 C 6,1 C 6,1 C 0,6 C 89 % 90 % 0 % 1016,2 hPa 0,0 l/m 0,0 km/h (0 Bft) SW 225 0 min 0,0 UV-I 3,8 C 6,1 C 0,0 km/h (0 Bft)
18.10.2012 04:45 5,5 C 16,3 C 6,4 C 6,1 C 6,1 C 0,6 C 89 % 91 % 0 % 1016,0 hPa 0,0 l/m 0,2 km/h (0 Bft) NW 315 0 min 0,0 UV-I 3,8 C 6,1 C 0,0 km/h (0 Bft)
18.10.2012 04:50 5,4 C 16,2 C 6,4 C 6,1 C 6,1 C 0,7 C 89 % 90 % 0 % 1016,0 hPa 0,0 l/m 0,2 km/h (0 Bft) W 270 0 min 0,0 UV-I 3,7 C 6,1 C 0,0 km/h (0 Bft)
18.10.2012 04:55 5,5 C 16,2 C 6,4 C 6,1 C 6,1 C 0,6 C 89 % 90 % 0 % 1016,0 hPa 0,0 l/m 0,0 km/h (0 Bft) O-NO 67 0 min 0,0 UV-I 3,8 C 6,1 C 0,0 km/h (0 Bft)
18.10.2012 05:00 5,4 C 16,2 C 6,4 C 6,2 C 6,2 C 0,8 C 89 % 90 % 0 % 1016,0 hPa 0,0 l/m 0,0 km/h (0 Bft) O-NO 67 0 min 0,0 UV-I 3,7 C 6,2 C 0,0 km/h (0 Bft)
18.10.2012 05:05 5,5 C 16,2 C 6,3 C 6,3 C 6,3 C 0,8 C 89 % 90 % 0 % 1015,8 hPa 0,0 l/m 0,0 km/h (0 Bft) O 90 0 min 0,0 UV-I 3,8 C 6,3 C 0,0 km/h (0 Bft)
18.10.2012 05:10 5,5 C 16,2 C 6,4 C 6,5 C 6,5 C 1,0 C 89 % 90 % 0 % 1015,8 hPa 0,0 l/m 0,0 km/h (0 Bft) O 90 0 min 0,0 UV-I 3,8 C 6,5 C 0,0 km/h (0 Bft)
18.10.2012 05:15 5,5 C 16,2 C 6,4 C 6,7 C 6,7 C 1,2 C 89 % 90 % 0 % 1015,8 hPa 0,0 l/m 0,0 km/h (0 Bft) SW 225 0 min 0,0 UV-I 3,8 C 6,7 C 0,0 km/h (0 Bft)
18.10.2012 05:20 5,6 C 16,2 C 6,4 C 6,7 C 6,7 C 1,1 C 89 % 90 % 0 % 1015,8 hPa 0,0 l/m 0,0 km/h (0 Bft) NO 45 0 min 0,0 UV-I 3,9 C 6,7 C 0,0 km/h (0 Bft)
18.10.2012 05:25 5,7 C 16,2 C 6,5 C 6,8 C 6,8 C 1,1 C 89 % 91 % 0 % 1015,8 hPa 0,0 l/m 0,0 km/h (0 Bft) NW 315 0 min 0,0 UV-I 4,0 C 6,8 C 0,0 km/h (0 Bft)
18.10.2012 05:30 5,8 C 16,2 C 6,8 C 7,1 C 7,1 C 1,3 C 89 % 91 % 0 % 1015,8 hPa 0,0 l/m 0,0 km/h (0 Bft) NW 315 0 min 0,0 UV-I 4,1 C 7,1 C 0,0 km/h (0 Bft)
18.10.2012 05:35 5,9 C 16,2 C 6,8 C 7,2 C 7,2 C 1,3 C 90 % 91 % 0 % 1015,8 hPa 0,0 l/m 0,0 km/h (0 Bft) NW 315 0 min 0,0 UV-I 4,4 C 7,2 C 0,0 km/h (0 Bft)
18.10.2012 05:40 6,1 C 16,1 C 6,8 C 7,2 C 7,2 C 1,1 C 90 % 91 % 0 % 1015,8 hPa 0,0 l/m 0,2 km/h (0 Bft) O-NO 67 0 min 0,0 UV-I 4,6 C 7,2 C 0,0 km/h (0 Bft)
18.10.2012 05:45 6,1 C 16,1 C 6,9 C 7,2 C 7,2 C 1,1 C 90 % 91 % 0 % 1015,7 hPa 0,0 l/m 0,2 km/h (0 Bft) NO 45 0 min 0,0 UV-I 4,6 C 7,2 C 0,0 km/h (0 Bft)
18.10.2012 05:50 6,2 C 16,1 C 7,0 C 7,2 C 7,2 C 1,0 C 90 % 91 % 0 % 1015,7 hPa 0,0 l/m 0,0 km/h (0 Bft) SW 225 0 min 0,0 UV-I 4,7 C 7,2 C 0,0 km/h (0 Bft)
18.10.2012 05:55 6,3 C 16,0 C 6,9 C 7,2 C 7,2 C 0,9 C 90 % 91 % 0 % 1015,7 hPa 0,0 l/m 0,0 km/h (0 Bft) NO 45 0 min 0,0 UV-I 4,8 C 7,2 C 0,0 km/h (0 Bft)
18.10.2012 06:00 6,3 C 16,1 C 6,9 C 7,2 C 7,2 C 0,9 C 90 % 91 % 0 % 1015,7 hPa 0,0 l/m 0,0 km/h (0 Bft) W 270 0 min 0,0 UV-I 4,8 C 7,2 C 0,0 km/h (0 Bft)
18.10.2012 06:05 6,2 C 16,0 C 6,9 C 7,2 C 7,2 C 1,0 C 90 % 91 % 0 % 1015,6 hPa 0,0 l/m 0,0 km/h (0 Bft) O-NO 67 0 min 0,0 UV-I 4,7 C 7,2 C 0,0 km/h (0 Bft)
18.10.2012 06:10 6,3 C 16,0 C 6,9 C 7,3 C 7,3 C 1,0 C 90 % 91 % 0 % 1015,6 hPa 0,0 l/m 0,0 km/h (0 Bft) NO 45 0 min 0,0 UV-I 4,8 C 7,3 C 0,0 km/h (0 Bft)
18.10.2012 06:15 6,3 C 16,0 C 6,9 C 7,3 C 7,3 C 1,0 C 90 % 91 % 0 % 1015,6 hPa 0,0 l/m 0,0 km/h (0 Bft) N-NO 22 0 min 0,0 UV-I 4,8 C 7,3 C 0,0 km/h (0 Bft)
18.10.2012 06:20 6,3 C 16,0 C 7,0 C 7,3 C 7,3 C 1,0 C 90 % 91 % 0 % 1015,6 hPa 0,0 l/m 0,0 km/h (0 Bft) W 270 0 min 0,0 UV-I 4,8 C 7,3 C 0,0 km/h (0 Bft)
18.10.2012 06:25 6,4 C 16,0 C 7,1 C 7,3 C 7,3 C 0,9 C 90 % 91 % 0 % 1015,4 hPa 0,0 l/m 0,0 km/h (0 Bft) NO 45 0 min 0,0 UV-I 4,9 C 7,3 C 0,0 km/h (0 Bft)
18.10.2012 06:30 6,5 C 16,0 C 7,2 C 7,4 C 7,4 C 0,9 C 90 % 91 % 0 % 1015,4 hPa 0,0 l/m 0,2 km/h (0 Bft) NO 45 0 min 0,0 UV-I 5,0 C 7,4 C 2,6 km/h (1 Bft)
18.10.2012 06:35 6,7 C 16,0 C 7,3 C 7,5 C 7,5 C 0,8 C 90 % 91 % 0 % 1015,4 hPa 0,0 l/m 0,2 km/h (0 Bft) N-NW 337 0 min 0,0 UV-I 5,2 C 7,5 C 0,0 km/h (0 Bft)
18.10.2012 06:46 6,8 C 16,0 C 7,5 C 7,6 C 7,6 C 0,8 C 90 % 91 % 0 % 1015,5 hPa 0,0 l/m 0,0 km/h (0 Bft) N 0 0 min 0,0 UV-I 5,3 C 7,6 C 0,0 km/h (0 Bft)
18.10.2012 06:55 7,1 C 15,9 C 7,6 C 7,7 C 7,7 C 0,6 C 90 % 91 % 0 % 1015,5 hPa 0,0 l/m 0,5 km/h (0 Bft) W-NW 292 0 min 0,0 UV-I 5,6 C 7,7 C 2,4 km/h (1 Bft)
18.10.2012 07:00 7,2 C 15,9 C 7,7 C 7,9 C 7,9 C 0,7 C 91 % 91 % 0 % 1015,5 hPa 0,0 l/m 1,3 km/h (1 Bft) W-SW 247 0 min 0,0 UV-I 5,8 C 7,9 C 6,6 km/h (2 Bft)
18.10.2012 07:05 7,5 C 15,9 C 7,9 C 8,0 C 8,0 C 0,5 C 91 % 91 % 0 % 1015,5 hPa 0,0 l/m 1,3 km/h (1 Bft) N-NW 337 0 min 0,0 UV-I 6,1 C 8,0 C 0,0 km/h (0 Bft)
18.10.2012 07:10 7,5 C 15,9 C 7,9 C 7,9 C 7,9 C 0,4 C 90 % 91 % 0 % 1015,5 hPa 0,0 l/m 0,3 km/h (0 Bft) N 360 0 min 0,0 UV-I 6,0 C 7,9 C 0,0 km/h (0 Bft)
18.10.2012 07:15 7,5 C 15,9 C 8,0 C 7,8 C 7,8 C 0,3 C 90 % 91 % 0 % 1015,5 hPa 0,0 l/m 0,2 km/h (0 Bft) W 270 0 min 0,0 UV-I 6,0 C 7,8 C 0,0 km/h (0 Bft)
18.10.2012 07:20 7,5 C 15,9 C 8,0 C 7,8 C 7,8 C 0,3 C 90 % 91 % 0 % 1015,5 hPa 0,0 l/m 0,0 km/h (0 Bft) NW 315 0 min 0,0 UV-I 6,0 C 7,8 C 0,0 km/h (0 Bft)
18.10.2012 07:25 7,5 C 15,9 C 8,0 C 7,8 C 7,8 C 0,3 C 89 % 91 % 0 % 1015,4 hPa 0,0 l/m 0,2 km/h (0 Bft) SO 135 0 min 0,0 UV-I 5,8 C 7,8 C 0,0 km/h (0 Bft)
18.10.2012 07:30 7,5 C 15,9 C 8,0 C 7,8 C 7,8 C 0,3 C 89 % 91 % 0 % 1015,4 hPa 0,0 l/m 0,0 km/h (0 Bft) NO 45 0 min 0,0 UV-I 5,8 C 7,8 C 0,0 km/h (0 Bft)
18.10.2012 07:35 7,5 C 15,9 C 8,0 C 7,8 C 7,8 C 0,3 C 89 % 90 % 0 % 1015,4 hPa 0,0 l/m 0,0 km/h (0 Bft) O-NO 67 0 min 0,0 UV-I 5,8 C 7,8 C 0,0 km/h (0 Bft)
18.10.2012 07:40 7,5 C 15,8 C 8,0 C 7,8 C 7,8 C 0,3 C 88 % 90 % 0 % 1015,4 hPa 0,0 l/m 0,2 km/h (0 Bft) N-NO 22 0 min 0,0 UV-I 5,6 C 7,8 C 0,0 km/h (0 Bft)
18.10.2012 07:45 7,5 C 15,8 C 8,0 C 7,9 C 7,9 C 0,4 C 88 % 90 % 0 % 1015,6 hPa 0,0 l/m 0,2 km/h (0 Bft) NW 315 0 min 0,0 UV-I 5,6 C 7,9 C 0,0 km/h (0 Bft)
18.10.2012 07:50 7,6 C 15,8 C 8,0 C 7,8 C 7,8 C 0,2 C 88 % 90 % 5 % 1015,6 hPa 0,0 l/m 0,2 km/h (0 Bft) O-NO 67 5 min 0,0 UV-I 5,7 C 7,8 C 0,0 km/h (0 Bft)
18.10.2012 07:55 7,7 C 15,8 C 8,1 C 7,9 C 7,9 C 0,2 C 88 % 90 % 5 % 1015,6 hPa 0,0 l/m 0,2 km/h (0 Bft) NW 315 0 min 0,0 UV-I 5,8 C 7,9 C 0,0 km/h (0 Bft)
18.10.2012 08:00 7,7 C 15,8 C 8,1 C 8,0 C 8,0 C 0,3 C 87 % 90 % 8 % 1015,6 hPa 0,0 l/m 0,0 km/h (0 Bft) W-SW 247 0 min 0,0 UV-I 5,7 C 8,0 C 0,0 km/h (0 Bft)
18.10.2012 08:05 7,7 C 15,8 C 8,2 C 8,0 C 8,0 C 0,3 C 87 % 90 % 8 % 1015,9 hPa 0,0 l/m 0,0 km/h (0 Bft) SW 225 0 min 0,0 UV-I 5,7 C 8,0 C 0,0 km/h (0 Bft)
18.10.2012 08:10 7,9 C 15,8 C 8,3 C 8,3 C 8,3 C 0,4 C 87 % 90 % 11 % 1015,9 hPa 0,0 l/m 0,3 km/h (0 Bft) W-NW 292 0 min 0,0 UV-I 5,9 C 8,3 C 0,0 km/h (0 Bft)
18.10.2012 08:15 7,9 C 15,8 C 8,4 C 8,4 C 8,4 C 0,5 C 87 % 90 % 13 % 1015,9 hPa 0,0 l/m 0,3 km/h (0 Bft) W-NW 292 0 min 0,0 UV-I 5,9 C 8,4 C 0,0 km/h (0 Bft)
18.10.2012 08:20 7,9 C 15,8 C 8,4 C 8,5 C 8,5 C 0,6 C 86 % 90 % 16 % 1015,9 hPa 0,0 l/m 0,0 km/h (0 Bft) W-NW 292 0 min 0,0 UV-I 5,7 C 8,5 C 0,0 km/h (0 Bft)
18.10.2012 08:25 8,0 C 15,7 C 8,4 C 8,6 C 8,6 C 0,6 C 86 % 90 % 16 % 1015,6 hPa 0,0 l/m 0,0 km/h (0 Bft) SW 225 0 min 0,0 UV-I 5,8 C 8,6 C 0,0 km/h (0 Bft)
18.10.2012 08:30 8,1 C 15,8 C 8,5 C 8,7 C 8,7 C 0,6 C 86 % 90 % 16 % 1015,6 hPa 0,0 l/m 0,2 km/h (0 Bft) S-SW 202 0 min 0,0 UV-I 5,9 C 8,7 C 0,0 km/h (0 Bft)
18.10.2012 08:35 8,0 C 15,8 C 8,5 C 8,7 C 8,7 C 0,7 C 86 % 89 % 18 % 1015,6 hPa 0,0 l/m 0,0 km/h (0 Bft) W 270 0 min 0,0 UV-I 5,8 C 8,7 C 0,0 km/h (0 Bft)
18.10.2012 08:40 8,0 C 15,8 C 8,5 C 8,7 C 8,7 C 0,7 C 86 % 89 % 18 % 1015,6 hPa 0,0 l/m 0,0 km/h (0 Bft) O-SO 112 0 min 0,0 UV-I 5,8 C 8,7 C 0,0 km/h (0 Bft)
18.10.2012 08:45 8,1 C 15,8 C 8,5 C 8,8 C 8,8 C 0,7 C 86 % 89 % 18 % 1016,1 hPa 0,0 l/m 0,0 km/h (0 Bft) NO 45 0 min 0,0 UV-I 5,9 C 8,8 C 0,0 km/h (0 Bft)
18.10.2012 08:50 8,0 C 15,8 C 8,5 C 9,1 C 9,1 C 1,1 C 86 % 89 % 29 % 1016,1 hPa 0,0 l/m 0,0 km/h (0 Bft) N-NO 22 0 min 0,0 UV-I 5,8 C 9,1 C 0,0 km/h (0 Bft)
18.10.2012 08:55 8,1 C 15,8 C 8,7 C 9,2 C 9,2 C 1,1 C 86 % 89 % 29 % 1016,1 hPa 0,0 l/m 0,0 km/h (0 Bft) NW 315 0 min 0,0 UV-I 5,9 C 9,2 C 0,0 km/h (0 Bft)
18.10.2012 09:00 8,1 C 15,8 C 8,8 C 9,4 C 9,4 C 1,3 C 85 % 90 % 34 % 1016,1 hPa 0,0 l/m 0,0 km/h (0 Bft) SW 225 0 min 0,0 UV-I 5,7 C 9,4 C 0,0 km/h (0 Bft)
18.10.2012 09:05 8,1 C 15,8 C 8,9 C 9,4 C 9,4 C 1,3 C 86 % 90 % 34 % 1016,2 hPa 0,0 l/m 0,0 km/h (0 Bft) O-SO 112 0 min 0,0 UV-I 5,9 C 9,4 C 0,0 km/h (0 Bft)
18.10.2012 09:10 8,2 C 15,8 C 9,0 C 9,6 C 9,6 C 1,4 C 86 % 90 % 37 % 1016,2 hPa 0,0 l/m 0,0 km/h (0 Bft) O-NO 67 0 min 0,0 UV-I 6,0 C 9,6 C 0,0 km/h (0 Bft)
18.10.2012 09:15 8,5 C 15,8 C 9,0 C 9,8 C 9,8 C 1,3 C 86 % 90 % 34 % 1016,2 hPa 0,0 l/m 0,0 km/h (0 Bft) O-NO 67 0 min 0,0 UV-I 6,3 C 9,8 C 0,0 km/h (0 Bft)
18.10.2012 09:20 8,7 C 15,7 C 9,2 C 10,2 C 10,2 C 1,5 C 86 % 90 % 39 % 1016,2 hPa 0,0 l/m 0,5 km/h (0 Bft) W-SW 247 0 min 0,0 UV-I 6,5 C 10,2 C 0,0 km/h (0 Bft)
18.10.2012 09:25 8,7 C 15,7 C 9,2 C 10,3 C 10,3 C 1,6 C 85 % 90 % 42 % 1016,2 hPa 0,0 l/m 0,5 km/h (0 Bft) W-NW 292 0 min 0,0 UV-I 6,3 C 10,3 C 0,0 km/h (0 Bft)
18.10.2012 09:30 8,7 C 15,6 C 9,5 C 10,6 C 10,6 C 1,9 C 85 % 89 % 50 % 1016,2 hPa 0,0 l/m 0,2 km/h (0 Bft) SW 225 0 min 0,0 UV-I 6,3 C 10,6 C 0,0 km/h (0 Bft)
18.10.2012 09:35 8,9 C 15,6 C 9,5 C 10,8 C 10,8 C 1,9 C 84 % 89 % 50 % 1016,2 hPa 0,0 l/m 0,0 km/h (0 Bft) SW 225 0 min 0,0 UV-I 6,3 C 10,8 C 0,0 km/h (0 Bft)
18.10.2012 09:40 8,9 C 15,6 C 9,6 C 10,9 C 10,9 C 2,0 C 84 % 89 % 53 % 1016,2 hPa 0,0 l/m 0,0 km/h (0 Bft) SW 225 0 min 0,0 UV-I 6,3 C 10,9 C 1,8 km/h (1 Bft)
18.10.2012 09:45 9,1 C 15,6 C 9,6 C 11,0 C 11,0 C 1,9 C 84 % 89 % 50 % 1016,4 hPa 0,0 l/m 0,0 km/h (0 Bft) W-SW 247 0 min 0,0 UV-I 6,5 C 11,0 C 0,0 km/h (0 Bft)
18.10.2012 09:50 9,2 C 15,6 C 9,6 C 11,0 C 11,0 C 1,8 C 84 % 88 % 47 % 1016,4 hPa 0,0 l/m 0,2 km/h (0 Bft) W-SW 247 0 min 0,0 UV-I 6,6 C 11,0 C 0,0 km/h (0 Bft)
18.10.2012 09:55 9,3 C 15,6 C 9,7 C 11,1 C 11,1 C 1,8 C 83 % 88 % 47 % 1016,4 hPa 0,0 l/m 0,2 km/h (0 Bft) S-SW 202 0 min 0,0 UV-I 6,6 C 11,1 C 0,0 km/h (0 Bft)
18.10.2012 10:00 9,3 C 15,6 C 9,8 C 11,1 C 11,1 C 1,8 C 83 % 88 % 47 % 1016,4 hPa 0,0 l/m 0,0 km/h (0 Bft) W 270 0 min 0,0 UV-I 6,6 C 11,1 C 0,0 km/h (0 Bft)
18.10.2012 10:05 9,4 C 15,6 C 9,9 C 11,3 C 11,3 C 1,9 C 83 % 88 % 50 % 1016,2 hPa 0,0 l/m 0,0 km/h (0 Bft) NW 315 0 min 0,1 UV-I 6,7 C 11,3 C 0,0 km/h (0 Bft)
18.10.2012 10:10 9,5 C 15,5 C 10,0 C 11,8 C 11,8 C 2,3 C 83 % 88 % 61 % 1016,2 hPa 0,0 l/m 0,5 km/h (0 Bft) W-SW 247 0 min 0,1 UV-I 6,8 C 11,8 C 3,4 km/h (1 Bft)
18.10.2012 10:15 9,8 C 15,5 C 10,1 C 12,1 C 12,1 C 2,3 C 83 % 88 % 61 % 1016,2 hPa 0,0 l/m 0,6 km/h (0 Bft) W-SW 247 0 min 0,1 UV-I 7,1 C 12,1 C 1,9 km/h (1 Bft)
18.10.2012 10:20 10,0 C 15,5 C 10,3 C 12,1 C 12,1 C 2,1 C 82 % 88 % 55 % 1016,2 hPa 0,0 l/m 0,5 km/h (0 Bft) W-SW 247 0 min 0,2 UV-I 7,1 C 12,1 C 0,0 km/h (0 Bft)
18.10.2012 10:25 10,3 C 15,6 C 10,5 C 12,2 C 12,2 C 1,9 C 82 % 88 % 50 % 1016,1 hPa 0,0 l/m 0,0 km/h (0 Bft) S-SW 202 0 min 0,2 UV-I 7,4 C 12,2 C 0,0 km/h (0 Bft)
18.10.2012 10:30 10,4 C 15,5 C 10,6 C 12,6 C 12,6 C 2,2 C 81 % 88 % 58 % 1016,1 hPa 0,0 l/m 0,0 km/h (0 Bft) W-SW 247 0 min 0,2 UV-I 7,3 C 12,6 C 0,0 km/h (0 Bft)
18.10.2012 10:35 10,5 C 15,5 C 10,7 C 13,0 C 13,0 C 2,5 C 82 % 88 % 66 % 1016,1 hPa 0,0 l/m 0,0 km/h (0 Bft) W-SW 247 0 min 0,3 UV-I 7,6 C 13,0 C 1,9 km/h (1 Bft)
18.10.2012 10:40 11,0 C 15,5 C 10,9 C 13,4 C 13,4 C 2,4 C 81 % 88 % 63 % 1016,1 hPa 0,0 l/m 1,0 km/h (0 Bft) W-SW 247 0 min 0,3 UV-I 7,9 C 13,4 C 2,6 km/h (1 Bft)
18.10.2012 10:45 11,1 C 15,6 C 11,1 C 13,7 C 13,7 C 2,6 C 82 % 88 % 68 % 1016,2 hPa 0,0 l/m 1,6 km/h (1 Bft) W-SW 247 0 min 0,3 UV-I 8,1 C 13,7 C 3,2 km/h (1 Bft)
18.10.2012 10:50 11,5 C 15,6 C 11,3 C 14,1 C 14,1 C 2,6 C 81 % 88 % 68 % 1016,2 hPa 0,0 l/m 1,0 km/h (0 Bft) SW 225 0 min 0,4 UV-I 8,4 C 14,1 C 0,0 km/h (0 Bft)
18.10.2012 10:55 11,9 C 15,6 C 11,6 C 14,3 C 14,3 C 2,4 C 81 % 88 % 63 % 1016,2 hPa 0,0 l/m 1,0 km/h (0 Bft) S 180 0 min 0,4 UV-I 8,7 C 14,3 C 2,1 km/h (1 Bft)
18.10.2012 11:00 12,3 C 15,6 C 12,0 C 14,8 C 14,8 C 2,5 C 79 % 87 % 66 % 1016,2 hPa 0,0 l/m 0,3 km/h (0 Bft) NW 315 0 min 0,4 UV-I 8,8 C 14,8 C 0,0 km/h (0 Bft)
18.10.2012 11:05 12,7 C 15,6 C 12,0 C 15,0 C 15,0 C 2,3 C 78 % 87 % 61 % 1016,2 hPa 0,0 l/m 0,6 km/h (0 Bft) O-NO 67 0 min 0,4 UV-I 9,0 C 15,0 C 0,0 km/h (0 Bft)
18.10.2012 11:10 13,6 C 15,5 C 12,6 C 15,4 C 15,4 C 1,8 C 75 % 85 % 47 % 1016,2 hPa 0,0 l/m 1,9 km/h (1 Bft) O 90 0 min 0,5 UV-I 9,3 C 15,4 C 4,2 km/h (1 Bft)
18.10.2012 11:15 13,9 C 15,5 C 12,9 C 15,7 C 15,7 C 1,8 C 75 % 85 % 47 % 1016,2 hPa 0,0 l/m 1,4 km/h (1 Bft) O-NO 67 0 min 0,5 UV-I 9,5 C 15,7 C 0,0 km/h (0 Bft)
18.10.2012 11:20 14,3 C 15,6 C 13,0 C 16,2 C 16,2 C 1,9 C 74 % 84 % 50 % 1016,2 hPa 0,0 l/m 1,1 km/h (1 Bft) SW 225 0 min 0,6 UV-I 9,7 C 16,2 C 5,1 km/h (1 Bft)
18.10.2012 11:25 14,7 C 15,5 C 13,2 C 16,6 C 16,6 C 1,9 C 72 % 84 % 50 % 1016,6 hPa 0,0 l/m 1,6 km/h (1 Bft) O-NO 67 0 min 0,7 UV-I 9,7 C 16,6 C 7,9 km/h (2 Bft)
18.10.2012 11:30 15,3 C 15,5 C 13,7 C 16,9 C 16,9 C 1,6 C 70 % 82 % 42 % 1016,6 hPa 0,0 l/m 2,1 km/h (1 Bft) NO 45 0 min 0,7 UV-I 9,9 C 16,9 C 2,9 km/h (1 Bft)
18.10.2012 11:35 15,5 C 15,5 C 14,0 C 17,2 C 17,2 C 1,7 C 70 % 82 % 45 % 1016,6 hPa 0,0 l/m 1,9 km/h (1 Bft) O-NO 67 0 min 0,7 UV-I 10,1 C 17,2 C 4,0 km/h (1 Bft)
18.10.2012 11:40 15,9 C 15,5 C 14,4 C 17,7 C 17,7 C 1,8 C 67 % 80 % 47 % 1016,6 hPa 0,0 l/m 2,3 km/h (1 Bft) O-NO 67 0 min 0,8 UV-I 9,8 C 17,7 C 4,5 km/h (1 Bft)
18.10.2012 11:45 16,0 C 15,5 C 14,6 C 17,8 C 17,8 C 1,8 C 68 % 80 % 47 % 1016,4 hPa 0,0 l/m 2,4 km/h (1 Bft) N-NW 337 0 min 0,8 UV-I 10,1 C 17,8 C 2,9 km/h (1 Bft)
18.10.2012 11:50 16,3 C 15,5 C 15,1 C 17,9 C 17,9 C 1,6 C 65 % 78 % 42 % 1016,4 hPa 0,0 l/m 3,2 km/h (1 Bft) O 90 0 min 0,9 UV-I 9,7 C 17,9 C 8,4 km/h (2 Bft)
18.10.2012 11:55 16,4 C 15,5 C 15,1 C 18,0 C 18,0 C 1,6 C 64 % 78 % 42 % 1016,4 hPa 0,0 l/m 4,0 km/h (1 Bft) N-NO 22 0 min 0,9 UV-I 9,6 C 18,0 C 9,0 km/h (2 Bft)
18.10.2012 12:00 16,5 C 15,5 C 15,4 C 18,0 C 18,0 C 1,5 C 64 % 76 % 39 % 1016,4 hPa 0,0 l/m 3,1 km/h (1 Bft) O-NO 67 0 min 1,0 UV-I 9,7 C 18,0 C 0,0 km/h (0 Bft)
18.10.2012 12:05 16,6 C 15,5 C 15,5 C 18,4 C 18,4 C 1,8 C 64 % 75 % 47 % 1016,1 hPa 0,0 l/m 2,1 km/h (1 Bft) O-SO 112 0 min 1,0 UV-I 9,8 C 18,4 C 5,3 km/h (1 Bft)
18.10.2012 12:10 16,8 C 15,5 C 15,5 C 18,8 C 18,8 C 2,0 C 63 % 75 % 53 % 1016,1 hPa 0,0 l/m 1,6 km/h (1 Bft) S-SO 157 0 min 1,0 UV-I 9,7 C 18,8 C 3,1 km/h (1 Bft)
18.10.2012 12:15 16,9 C 15,6 C 15,5 C 18,7 C 18,7 C 1,8 C 63 % 74 % 47 % 1016,1 hPa 0,0 l/m 2,1 km/h (1 Bft) O-NO 67 0 min 1,1 UV-I 9,8 C 18,7 C 4,2 km/h (1 Bft)
18.10.2012 12:20 17,2 C 15,5 C 15,6 C 20,0 C 20,0 C 2,8 C 61 % 74 % 74 % 1016,1 hPa 0,0 l/m 2,3 km/h (1 Bft) NO 45 0 min 1,1 UV-I 9,6 C 20,0 C 4,0 km/h (1 Bft)
18.10.2012 12:25 17,2 C 15,6 C 15,6 C 21,2 C 21,2 C 4,0 C 62 % 73 % 100 % 1016,2 hPa 0,0 l/m 2,3 km/h (1 Bft) N-NW 337 5 min 1,0 UV-I 9,9 C 21,2 C 1,9 km/h (1 Bft)
18.10.2012 12:30 17,2 C 15,6 C 15,9 C 22,5 C 22,5 C 5,3 C 61 % 72 % 100 % 1016,2 hPa 0,0 l/m 2,3 km/h (1 Bft) NW 315 5 min 1,0 UV-I 9,6 C 22,5 C 0,0 km/h (0 Bft)
18.10.2012 12:35 17,2 C 15,6 C 15,9 C 23,0 C 23,0 C 5,8 C 61 % 72 % 100 % 1016,2 hPa 0,0 l/m 2,4 km/h (1 Bft) S-SO 157 5 min 1,1 UV-I 9,6 C 23,0 C 2,3 km/h (1 Bft)
18.10.2012 12:46 17,3 C 15,6 C 15,9 C 22,7 C 22,7 C 5,4 C 59 % 71 % 100 % 1016,3 hPa 0,0 l/m 4,0 km/h (1 Bft) N 0 11 min 1,0 UV-I 9,2 C 22,7 C 3,2 km/h (1 Bft)
18.10.2012 12:55 17,2 C 15,6 C 15,8 C 21,7 C 21,7 C 4,5 C 59 % 70 % 100 % 1016,3 hPa 0,0 l/m 3,7 km/h (1 Bft) NO 45 9 min 1,0 UV-I 9,1 C 21,7 C 5,3 km/h (1 Bft)
18.10.2012 13:00 17,3 C 15,6 C 16,0 C 21,9 C 21,9 C 4,6 C 59 % 70 % 100 % 1016,3 hPa 0,0 l/m 2,9 km/h (1 Bft) O-NO 67 5 min 1,0 UV-I 9,2 C 21,9 C 2,1 km/h (1 Bft)
18.10.2012 13:05 17,2 C 15,6 C 15,9 C 22,0 C 22,0 C 4,8 C 60 % 70 % 100 % 1016,1 hPa 0,0 l/m 2,4 km/h (1 Bft) N-NO 22 5 min 1,1 UV-I 9,4 C 22,0 C 1,9 km/h (1 Bft)
18.10.2012 13:10 17,2 C 15,7 C 15,9 C 22,1 C 22,1 C 4,9 C 60 % 70 % 100 % 1016,1 hPa 0,0 l/m 1,0 km/h (0 Bft) S-SW 202 5 min 1,0 UV-I 9,4 C 22,1 C 2,6 km/h (1 Bft)
18.10.2012 13:15 17,3 C 15,7 C 16,1 C 23,3 C 23,3 C 6,0 C 60 % 70 % 100 % 1016,1 hPa 0,0 l/m 1,1 km/h (1 Bft) N-NW 337 5 min 1,1 UV-I 9,5 C 23,3 C 2,3 km/h (1 Bft)
18.10.2012 13:20 17,5 C 15,7 C 16,3 C 24,1 C 24,1 C 6,6 C 61 % 70 % 100 % 1016,1 hPa 0,0 l/m 1,6 km/h (1 Bft) O-NO 67 5 min 1,1 UV-I 9,9 C 24,1 C 4,8 km/h (1 Bft)
18.10.2012 13:25 17,6 C 15,7 C 16,4 C 24,9 C 24,9 C 7,3 C 60 % 70 % 100 % 1016,9 hPa 0,0 l/m 1,4 km/h (1 Bft) W-NW 292 5 min 1,1 UV-I 9,7 C 24,9 C 2,9 km/h (1 Bft)
18.10.2012 13:30 17,9 C 15,7 C 16,9 C 25,1 C 25,1 C 7,2 C 60 % 70 % 100 % 1016,9 hPa 0,0 l/m 2,1 km/h (1 Bft) NO 45 5 min 1,1 UV-I 10,0 C 25,1 C 4,0 km/h (1 Bft)
18.10.2012 13:35 18,0 C 15,7 C 16,9 C 24,9 C 24,9 C 6,9 C 58 % 69 % 100 % 1016,9 hPa 0,0 l/m 2,3 km/h (1 Bft) O-NO 67 5 min 1,1 UV-I 9,6 C 24,9 C 5,5 km/h (1 Bft)
18.10.2012 13:40 18,3 C 15,8 C 16,9 C 23,7 C 23,7 C 5,4 C 59 % 69 % 100 % 1016,9 hPa 0,0 l/m 2,1 km/h (1 Bft) O-NO 67 5 min 1,0 UV-I 10,1 C 23,7 C 1,6 km/h (1 Bft)
18.10.2012 13:45 18,3 C 15,8 C 16,8 C 22,6 C 22,6 C 4,3 C 57 % 68 % 100 % 1015,9 hPa 0,0 l/m 3,2 km/h (1 Bft) O-NO 67 5 min 1,0 UV-I 9,6 C 22,6 C 5,1 km/h (1 Bft)
18.10.2012 13:50 18,4 C 15,8 C 16,9 C 22,1 C 22,1 C 3,7 C 58 % 68 % 97 % 1015,9 hPa 0,0 l/m 2,7 km/h (1 Bft) W 270 5 min 1,0 UV-I 10,0 C 22,1 C 2,9 km/h (1 Bft)
18.10.2012 13:55 18,4 C 15,8 C 17,1 C 22,7 C 22,7 C 4,3 C 58 % 69 % 100 % 1015,9 hPa 0,0 l/m 2,1 km/h (1 Bft) O-NO 67 5 min 1,0 UV-I 10,0 C 22,7 C 2,9 km/h (1 Bft)
18.10.2012 14:00 18,7 C 15,8 C 17,3 C 23,7 C 23,7 C 5,0 C 58 % 68 % 100 % 1015,9 hPa 0,0 l/m 1,8 km/h (1 Bft) O-NO 67 5 min 1,1 UV-I 10,3 C 23,7 C 0,0 km/h (0 Bft)
18.10.2012 14:05 18,8 C 15,7 C 17,5 C 24,0 C 24,0 C 5,2 C 57 % 68 % 100 % 1015,7 hPa 0,0 l/m 1,9 km/h (1 Bft) NO 45 5 min 1,1 UV-I 10,1 C 24,0 C 3,1 km/h (1 Bft)
18.10.2012 14:10 19,0 C 15,7 C 17,8 C 24,1 C 24,1 C 5,1 C 57 % 67 % 100 % 1015,7 hPa 0,0 l/m 2,3 km/h (1 Bft) O-NO 67 5 min 1,1 UV-I 10,3 C 24,1 C 0,0 km/h (0 Bft)
18.10.2012 14:15 19,2 C 15,7 C 17,9 C 24,2 C 24,2 C 5,0 C 57 % 67 % 100 % 1015,7 hPa 0,0 l/m 1,8 km/h (1 Bft) O 90 5 min 1,0 UV-I 10,5 C 24,2 C 2,1 km/h (1 Bft)
18.10.2012 14:20 19,2 C 15,8 C 17,9 C 23,6 C 23,6 C 4,4 C 56 % 67 % 100 % 1015,7 hPa 0,0 l/m 1,9 km/h (1 Bft) W 270 5 min 0,9 UV-I 10,2 C 23,6 C 5,1 km/h (1 Bft)
18.10.2012 14:25 19,2 C 15,8 C 17,9 C 23,0 C 23,0 C 3,8 C 55 % 66 % 100 % 1015,7 hPa 0,0 l/m 3,4 km/h (1 Bft) O-NO 67 5 min 0,9 UV-I 9,9 C 23,0 C 6,4 km/h (2 Bft)
18.10.2012 14:30 19,2 C 15,8 C 17,7 C 22,4 C 22,4 C 3,2 C 55 % 66 % 84 % 1015,7 hPa 0,0 l/m 3,2 km/h (1 Bft) O-NO 67 0 min 0,8 UV-I 9,9 C 22,4 C 4,3 km/h (1 Bft)
18.10.2012 14:35 19,3 C 15,8 C 17,9 C 22,2 C 22,2 C 2,9 C 55 % 66 % 76 % 1015,7 hPa 0,0 l/m 3,4 km/h (1 Bft) O-NO 67 0 min 0,8 UV-I 10,0 C 22,2 C 6,9 km/h (2 Bft)
18.10.2012 14:40 19,3 C 15,8 C 18,0 C 22,1 C 22,1 C 2,8 C 55 % 66 % 74 % 1015,7 hPa 0,0 l/m 4,8 km/h (1 Bft) O-NO 67 0 min 0,8 UV-I 10,0 C 22,1 C 10,5 km/h (2 Bft)
18.10.2012 14:45 19,2 C 15,8 C 18,1 C 22,5 C 22,5 C 3,3 C 56 % 66 % 87 % 1015,5 hPa 0,0 l/m 4,8 km/h (1 Bft) NO 45 5 min 0,7 UV-I 10,2 C 22,5 C 5,0 km/h (1 Bft)
18.10.2012 14:50 19,3 C 15,8 C 18,0 C 22,9 C 22,9 C 3,6 C 56 % 66 % 95 % 1015,5 hPa 0,0 l/m 3,7 km/h (1 Bft) O 90 5 min 0,7 UV-I 10,3 C 22,9 C 4,3 km/h (1 Bft)
18.10.2012 14:55 19,2 C 15,9 C 17,9 C 22,7 C 22,7 C 3,5 C 55 % 66 % 92 % 1015,5 hPa 0,0 l/m 3,1 km/h (1 Bft) O-SO 112 5 min 0,7 UV-I 9,9 C 22,7 C 3,7 km/h (1 Bft)
18.10.2012 15:00 19,2 C 15,9 C 17,9 C 22,6 C 22,6 C 3,4 C 56 % 66 % 89 % 1015,5 hPa 0,0 l/m 3,4 km/h (1 Bft) O-NO 67 5 min 0,6 UV-I 10,2 C 22,6 C 6,0 km/h (2 Bft)
18.10.2012 15:05 19,2 C 15,9 C 18,0 C 22,8 C 22,8 C 3,6 C 56 % 66 % 95 % 1015,4 hPa 0,0 l/m 4,0 km/h (1 Bft) O-NO 67 5 min 0,6 UV-I 10,2 C 22,8 C 3,2 km/h (1 Bft)
18.10.2012 15:10 19,2 C 15,9 C 18,0 C 22,9 C 22,9 C 3,7 C 56 % 65 % 97 % 1015,4 hPa 0,0 l/m 5,0 km/h (1 Bft) O 90 5 min 0,6 UV-I 10,2 C 22,9 C 11,7 km/h (2 Bft)
18.10.2012 15:15 19,2 C 15,9 C 18,1 C 23,3 C 23,3 C 4,1 C 56 % 65 % 100 % 1015,4 hPa 0,0 l/m 4,3 km/h (1 Bft) O-NO 67 5 min 0,6 UV-I 10,2 C 23,3 C 6,4 km/h (2 Bft)
18.10.2012 15:20 19,3 C 15,9 C 18,3 C 24,0 C 24,0 C 4,7 C 56 % 64 % 100 % 1015,4 hPa 0,0 l/m 2,3 km/h (1 Bft) NO 45 5 min 0,6 UV-I 10,3 C 24,0 C 1,8 km/h (1 Bft)
18.10.2012 15:25 19,4 C 16,0 C 18,3 C 24,2 C 24,2 C 4,8 C 55 % 64 % 100 % 1015,1 hPa 0,0 l/m 2,4 km/h (1 Bft) O-NO 67 5 min 0,5 UV-I 10,1 C 24,2 C 5,1 km/h (1 Bft)
18.10.2012 15:30 19,4 C 16,0 C 18,2 C 23,7 C 23,7 C 4,3 C 56 % 65 % 100 % 1015,1 hPa 0,0 l/m 4,0 km/h (1 Bft) O-NO 67 5 min 0,5 UV-I 10,4 C 23,7 C 5,5 km/h (1 Bft)
18.10.2012 15:35 19,3 C 16,0 C 18,1 C 23,1 C 23,1 C 3,8 C 55 % 65 % 100 % 1015,1 hPa 0,0 l/m 4,5 km/h (1 Bft) O-NO 67 5 min 0,5 UV-I 10,0 C 23,1 C 4,8 km/h (1 Bft)
18.10.2012 15:40 19,2 C 16,0 C 17,9 C 22,3 C 22,3 C 3,1 C 56 % 65 % 82 % 1015,1 hPa 0,0 l/m 3,9 km/h (1 Bft) NO 45 0 min 0,4 UV-I 10,2 C 22,3 C 1,9 km/h (1 Bft)
18.10.2012 15:45 19,2 C 16,0 C 17,9 C 22,0 C 22,0 C 2,8 C 56 % 65 % 74 % 1015,2 hPa 0,0 l/m 3,5 km/h (1 Bft) O-NO 67 0 min 0,4 UV-I 10,2 C 22,0 C 2,3 km/h (1 Bft)
18.10.2012 15:50 19,2 C 16,0 C 17,9 C 22,1 C 22,1 C 2,9 C 56 % 65 % 76 % 1015,2 hPa 0,0 l/m 3,5 km/h (1 Bft) O-SO 112 0 min 0,4 UV-I 10,2 C 22,1 C 2,3 km/h (1 Bft)
18.10.2012 15:55 19,2 C 16,0 C 18,0 C 22,3 C 22,3 C 3,1 C 56 % 65 % 82 % 1015,2 hPa 0,0 l/m 3,9 km/h (1 Bft) O-NO 67 5 min 0,3 UV-I 10,2 C 22,3 C 7,1 km/h (2 Bft)
18.10.2012 16:00 19,2 C 16,0 C 18,1 C 22,4 C 22,4 C 3,2 C 55 % 65 % 84 % 1015,2 hPa 0,0 l/m 4,2 km/h (1 Bft) O-NO 67 5 min 0,3 UV-I 9,9 C 22,4 C 3,1 km/h (1 Bft)
18.10.2012 16:05 19,1 C 16,0 C 18,0 C 22,3 C 22,3 C 3,2 C 56 % 64 % 84 % 1015,0 hPa 0,0 l/m 5,3 km/h (1 Bft) O-NO 67 5 min 0,3 UV-I 10,1 C 22,3 C 6,6 km/h (2 Bft)
18.10.2012 16:10 19,0 C 16,1 C 17,9 C 22,1 C 22,1 C 3,1 C 56 % 65 % 82 % 1015,0 hPa 0,0 l/m 5,5 km/h (1 Bft) O-NO 67 5 min 0,2 UV-I 10,0 C 22,1 C 4,5 km/h (1 Bft)
18.10.2012 16:15 19,1 C 16,1 C 17,9 C 22,2 C 22,2 C 3,1 C 56 % 65 % 82 % 1015,0 hPa 0,0 l/m 4,5 km/h (1 Bft) O 90 5 min 0,2 UV-I 10,1 C 22,2 C 2,3 km/h (1 Bft)
18.10.2012 16:20 18,9 C 16,1 C 17,7 C 22,1 C 22,1 C 3,2 C 57 % 65 % 84 % 1015,0 hPa 0,0 l/m 2,9 km/h (1 Bft) O 90 5 min 0,2 UV-I 10,2 C 22,1 C 4,8 km/h (1 Bft)
18.10.2012 16:25 18,8 C 16,1 C 17,6 C 21,8 C 21,8 C 3,0 C 56 % 65 % 79 % 1014,8 hPa 0,0 l/m 3,2 km/h (1 Bft) NO 45 5 min 0,1 UV-I 9,8 C 21,8 C 3,7 km/h (1 Bft)
18.10.2012 16:30 18,7 C 16,1 C 17,5 C 21,3 C 21,3 C 2,6 C 57 % 65 % 68 % 1014,8 hPa 0,0 l/m 4,5 km/h (1 Bft) NO 45 5 min 0,1 UV-I 10,0 C 21,3 C 6,6 km/h (2 Bft)
18.10.2012 16:35 18,5 C 16,1 C 17,3 C 20,9 C 20,9 C 2,4 C 57 % 65 % 63 % 1014,8 hPa 0,0 l/m 4,7 km/h (1 Bft) O-NO 67 5 min 0,1 UV-I 9,8 C 20,9 C 4,2 km/h (1 Bft)
18.10.2012 16:40 18,4 C 16,1 C 17,2 C 20,5 C 20,5 C 2,1 C 57 % 65 % 55 % 1014,8 hPa 0,0 l/m 4,2 km/h (1 Bft) O-SO 112 5 min 0,0 UV-I 9,7 C 20,5 C 4,8 km/h (1 Bft)
18.10.2012 16:45 18,2 C 16,1 C 17,1 C 20,1 C 20,1 C 1,9 C 57 % 65 % 50 % 1015,1 hPa 0,0 l/m 3,5 km/h (1 Bft) NO 45 0 min 0,0 UV-I 9,5 C 20,1 C 5,1 km/h (1 Bft)
18.10.2012 16:50 18,0 C 16,1 C 16,9 C 19,5 C 19,5 C 1,5 C 58 % 66 % 39 % 1015,1 hPa 0,0 l/m 2,3 km/h (1 Bft) SW 225 0 min 0,0 UV-I 9,6 C 19,5 C 0,0 km/h (0 Bft)
18.10.2012 16:55 17,9 C 16,1 C 16,6 C 19,1 C 19,1 C 1,2 C 58 % 66 % 32 % 1015,1 hPa 0,0 l/m 1,8 km/h (1 Bft) NW 315 0 min 0,0 UV-I 9,5 C 19,1 C 1,9 km/h (1 Bft)
18.10.2012 17:00 17,6 C 16,2 C 16,4 C 18,7 C 18,7 C 1,1 C 58 % 67 % 29 % 1015,1 hPa 0,0 l/m 1,8 km/h (1 Bft) W-SW 247 0 min 0,0 UV-I 9,2 C 18,7 C 2,6 km/h (1 Bft)
18.10.2012 17:05 17,5 C 16,2 C 16,2 C 18,5 C 18,5 C 1,0 C 59 % 67 % 26 % 1015,2 hPa 0,0 l/m 1,6 km/h (1 Bft) NW 315 0 min 0,0 UV-I 9,4 C 18,5 C 0,0 km/h (0 Bft)
18.10.2012 17:10 17,3 C 16,2 C 16,1 C 18,1 C 18,1 C 0,8 C 59 % 68 % 21 % 1015,2 hPa 0,0 l/m 0,8 km/h (0 Bft) N-NO 22 0 min 0,0 UV-I 9,2 C 18,1 C 0,0 km/h (0 Bft)
18.10.2012 17:15 17,1 C 16,2 C 15,8 C 17,8 C 17,8 C 0,7 C 60 % 68 % 18 % 1015,2 hPa 0,0 l/m 0,6 km/h (0 Bft) N-NW 337 0 min 0,0 UV-I 9,3 C 17,8 C 0,0 km/h (0 Bft)
18.10.2012 17:20 16,8 C 16,2 C 15,5 C 17,0 C 17,0 C 0,2 C 61 % 69 % 5 % 1015,2 hPa 0,0 l/m 0,5 km/h (0 Bft) O-NO 67 0 min 0,0 UV-I 9,2 C 17,0 C 2,1 km/h (1 Bft)
18.10.2012 17:25 16,6 C 16,2 C 15,2 C 16,6 C 16,5 C 0,0 C 61 % 69 % 0 % 1015,3 hPa 0,0 l/m 0,2 km/h (0 Bft) O 90 0 min 0,0 UV-I 9,0 C 16,5 C 0,0 km/h (0 Bft)
18.10.2012 17:30 16,3 C 16,3 C 15,1 C 16,1 C 15,8 C 0,0 C 62 % 70 % 0 % 1015,3 hPa 0,0 l/m 0,2 km/h (0 Bft) N-NO 22 0 min 0,0 UV-I 9,0 C 15,8 C 0,0 km/h (0 Bft)
18.10.2012 17:35 16,1 C 16,3 C 14,8 C 15,9 C 15,4 C 0,0 C 62 % 70 % 0 % 1015,3 hPa 0,0 l/m 0,3 km/h (0 Bft) O-NO 67 0 min 0,0 UV-I 8,8 C 15,4 C 0,0 km/h (0 Bft)
18.10.2012 17:40 15,9 C 16,3 C 14,6 C 15,6 C 15,0 C 0,0 C 63 % 71 % 0 % 1015,3 hPa 0,0 l/m 0,3 km/h (0 Bft) O-NO 67 0 min 0,0 UV-I 8,9 C 15,0 C 0,0 km/h (0 Bft)
18.10.2012 17:45 15,7 C 16,3 C 14,3 C 15,3 C 14,6 C 0,0 C 64 % 72 % 0 % 1015,4 hPa 0,0 l/m 0,0 km/h (0 Bft) W 270 0 min 0,0 UV-I 8,9 C 14,6 C 0,0 km/h (0 Bft)
18.10.2012 17:50 15,3 C 16,3 C 14,3 C 14,9 C 14,1 C 0,0 C 65 % 73 % 0 % 1015,4 hPa 0,0 l/m 0,0 km/h (0 Bft) SO 135 0 min 0,0 UV-I 8,8 C 14,1 C 0,0 km/h (0 Bft)
18.10.2012 17:55 15,1 C 16,3 C 14,1 C 14,7 C 13,9 C 0,0 C 65 % 73 % 0 % 1015,4 hPa 0,0 l/m 0,0 km/h (0 Bft) O 90 0 min 0,0 UV-I 8,6 C 13,9 C 0,0 km/h (0 Bft)
18.10.2012 18:00 14,8 C 16,3 C 13,7 C 14,4 C 13,7 C 0,0 C 66 % 73 % 0 % 1015,4 hPa 0,0 l/m 0,3 km/h (0 Bft) O 90 0 min 0,0 UV-I 8,5 C 13,7 C 0,0 km/h (0 Bft)
18.10.2012 18:05 14,7 C 16,4 C 13,6 C 14,3 C 13,5 C 0,0 C 67 % 74 % 0 % 1015,6 hPa 0,0 l/m 0,3 km/h (0 Bft) O 90 0 min 0,0 UV-I 8,6 C 13,5 C 0,0 km/h (0 Bft)
18.10.2012 18:10 14,4 C 16,4 C 13,5 C 14,0 C 13,1 C 0,0 C 68 % 74 % 0 % 1015,6 hPa 0,0 l/m 0,2 km/h (0 Bft) NO 45 0 min 0,0 UV-I 8,6 C 13,1 C 0,0 km/h (0 Bft)
18.10.2012 18:15 14,2 C 16,4 C 13,3 C 13,7 C 12,8 C 0,0 C 68 % 75 % 0 % 1015,6 hPa 0,0 l/m 0,0 km/h (0 Bft) N-NO 22 0 min 0,0 UV-I 8,4 C 12,8 C 0,0 km/h (0 Bft)
18.10.2012 18:20 13,9 C 16,4 C 13,0 C 13,4 C 12,4 C 0,0 C 69 % 76 % 0 % 1015,6 hPa 0,0 l/m 0,0 km/h (0 Bft) NO 45 0 min 0,0 UV-I 8,3 C 12,4 C 0,0 km/h (0 Bft)
18.10.2012 18:25 13,7 C 16,4 C 12,8 C 13,2 C 12,2 C 0,0 C 69 % 76 % 0 % 1015,5 hPa 0,0 l/m 0,0 km/h (0 Bft) O-NO 67 0 min 0,0 UV-I 8,1 C 12,2 C 0,0 km/h (0 Bft)
18.10.2012 18:30 13,5 C 16,4 C 12,7 C 13,0 C 12,0 C 0,0 C 70 % 77 % 0 % 1015,5 hPa 0,0 l/m 0,0 km/h (0 Bft) N-NW 337 0 min 0,0 UV-I 8,1 C 12,0 C 0,0 km/h (0 Bft)
18.10.2012 18:35 13,3 C 16,5 C 12,4 C 12,8 C 11,8 C 0,0 C 70 % 77 % 0 % 1015,5 hPa 0,0 l/m 0,0 km/h (0 Bft) W 270 0 min 0,0 UV-I 7,9 C 11,8 C 0,0 km/h (0 Bft)
18.10.2012 18:46 12,7 C 16,5 C 12,0 C 12,3 C 11,4 C 0,0 C 73 % 78 % 0 % 1016,2 hPa 0,0 l/m 0,2 km/h (0 Bft) N 0 0 min 0,0 UV-I 8,0 C 11,4 C 0,0 km/h (0 Bft)
18.10.2012 18:55 12,6 C 16,5 C 11,9 C 12,2 C 11,3 C 0,0 C 73 % 79 % 0 % 1016,2 hPa 0,0 l/m 0,2 km/h (0 Bft) W 270 0 min 0,0 UV-I 7,9 C 11,3 C 0,0 km/h (0 Bft)
18.10.2012 19:00 12,3 C 16,5 C 11,7 C 11,8 C 10,9 C 0,0 C 74 % 79 % 0 % 1016,2 hPa 0,0 l/m 0,0 km/h (0 Bft) O 90 0 min 0,0 UV-I 7,8 C 10,9 C 0,0 km/h (0 Bft)
18.10.2012 19:05 12,2 C 16,5 C 11,5 C 11,7 C 10,7 C 0,0 C 74 % 79 % 0 % 1016,9 hPa 0,0 l/m 0,0 km/h (0 Bft) O-NO 67 0 min 0,0 UV-I 7,7 C 10,7 C 0,0 km/h (0 Bft)
18.10.2012 19:10 11,9 C 16,6 C 11,2 C 11,4 C 10,5 C 0,0 C 75 % 80 % 0 % 1016,9 hPa 0,0 l/m 0,0 km/h (0 Bft) NO 45 0 min 0,0 UV-I 7,6 C 10,5 C 0,0 km/h (0 Bft)
18.10.2012 19:15 11,8 C 16,6 C 11,1 C 11,4 C 10,5 C 0,0 C 76 % 80 % 0 % 1016,9 hPa 0,0 l/m 0,0 km/h (0 Bft) O-SO 112 0 min 0,0 UV-I 7,7 C 10,5 C 0,0 km/h (0 Bft)
18.10.2012 19:20 11,6 C 16,6 C 10,9 C 11,2 C 10,3 C 0,0 C 76 % 80 % 0 % 1016,9 hPa 0,0 l/m 0,0 km/h (0 Bft) O-NO 67 0 min 0,0 UV-I 7,5 C 10,3 C 0,0 km/h (0 Bft)
18.10.2012 19:25 11,5 C 16,6 C 10,8 C 11,1 C 10,2 C 0,0 C 77 % 81 % 0 % 1017,0 hPa 0,0 l/m 0,0 km/h (0 Bft) O 90 0 min 0,0 UV-I 7,6 C 10,2 C 0,0 km/h (0 Bft)
18.10.2012 19:30 11,2 C 16,6 C 10,7 C 10,9 C 10,2 C 0,0 C 78 % 82 % 0 % 1017,0 hPa 0,0 l/m 1,0 km/h (0 Bft) O-NO 67 0 min 0,0 UV-I 7,5 C 10,2 C 1,6 km/h (1 Bft)
18.10.2012 19:35 11,1 C 16,6 C 10,6 C 10,8 C 10,2 C 0,0 C 78 % 82 % 0 % 1017,0 hPa 0,0 l/m 1,0 km/h (0 Bft) W-SW 247 0 min 0,0 UV-I 7,4 C 10,2 C 0,0 km/h (0 Bft)
18.10.2012 19:40 10,9 C 16,6 C 10,5 C 10,6 C 9,9 C 0,0 C 79 % 83 % 0 % 1017,0 hPa 0,0 l/m 0,2 km/h (0 Bft) O-NO 67 0 min 0,0 UV-I 7,4 C 9,9 C 0,0 km/h (0 Bft)
18.10.2012 19:45 10,7 C 16,6 C 10,4 C 10,4 C 9,9 C 0,0 C 79 % 83 % 0 % 1016,8 hPa 0,0 l/m 0,2 km/h (0 Bft) O 90 0 min 0,0 UV-I 7,2 C 9,9 C 0,0 km/h (0 Bft)
18.10.2012 19:50 10,5 C 16,6 C 10,3 C 10,2 C 9,7 C 0,0 C 79 % 83 % 0 % 1016,8 hPa 0,0 l/m 0,2 km/h (0 Bft) W-SW 247 0 min 0,0 UV-I 7,0 C 9,7 C 1,8 km/h (1 Bft)
18.10.2012 19:55 10,3 C 16,6 C 10,3 C 10,0 C 9,5 C 0,0 C 79 % 83 % 0 % 1016,8 hPa 0,0 l/m 0,0 km/h (0 Bft) W-SW 247 0 min 0,0 UV-I 6,8 C 9,5 C 0,0 km/h (0 Bft)
18.10.2012 20:00 10,0 C 16,6 C 10,3 C 9,8 C 9,3 C 0,0 C 80 % 83 % 0 % 1016,8 hPa 0,0 l/m 0,3 km/h (0 Bft) N-NW 337 0 min 0,0 UV-I 6,7 C 9,3 C 0,0 km/h (0 Bft)
18.10.2012 20:05 9,8 C 16,6 C 10,1 C 9,6 C 9,1 C 0,0 C 80 % 84 % 0 % 1017,1 hPa 0,0 l/m 0,2 km/h (0 Bft) N 360 0 min 0,0 UV-I 6,5 C 9,1 C 0,0 km/h (0 Bft)
18.10.2012 20:10 9,6 C 16,6 C 10,0 C 9,4 C 9,1 C 0,0 C 81 % 84 % 0 % 1017,1 hPa 0,0 l/m 0,0 km/h (0 Bft) NO 45 0 min 0,0 UV-I 6,5 C 9,1 C 0,0 km/h (0 Bft)
18.10.2012 20:15 9,5 C 16,6 C 9,9 C 9,4 C 9,1 C 0,0 C 81 % 84 % 0 % 1017,1 hPa 0,0 l/m 0,0 km/h (0 Bft) N-NW 337 0 min 0,0 UV-I 6,4 C 9,1 C 0,0 km/h (0 Bft)
18.10.2012 20:20 9,3 C 16,6 C 10,0 C 9,3 C 9,2 C 0,0 C 82 % 85 % 0 % 1017,1 hPa 0,0 l/m 0,0 km/h (0 Bft) NW 315 0 min 0,0 UV-I 6,4 C 9,2 C 0,0 km/h (0 Bft)
18.10.2012 20:25 9,5 C 16,6 C 10,1 C 9,5 C 9,4 C 0,0 C 83 % 85 % 0 % 1017,1 hPa 0,0 l/m 0,0 km/h (0 Bft) SW 225 0 min 0,0 UV-I 6,8 C 9,4 C 2,3 km/h (1 Bft)
18.10.2012 20:30 9,4 C 16,6 C 10,2 C 9,6 C 9,6 C 0,2 C 83 % 85 % 0 % 1017,1 hPa 0,0 l/m 0,2 km/h (0 Bft) O-SO 112 0 min 0,0 UV-I 6,7 C 9,6 C 0,0 km/h (0 Bft)
18.10.2012 20:35 9,5 C 16,6 C 10,1 C 9,9 C 9,9 C 0,4 C 83 % 85 % 0 % 1017,1 hPa 0,0 l/m 0,6 km/h (0 Bft) W-NW 292 0 min 0,0 UV-I 6,8 C 9,9 C 1,8 km/h (1 Bft)
18.10.2012 20:40 9,7 C 16,6 C 10,1 C 10,1 C 10,1 C 0,4 C 83 % 85 % 0 % 1017,1 hPa 0,0 l/m 0,8 km/h (0 Bft) N-NW 337 0 min 0,0 UV-I 7,0 C 10,1 C 2,3 km/h (1 Bft)
18.10.2012 20:45 9,7 C 16,6 C 10,1 C 10,2 C 10,2 C 0,5 C 83 % 85 % 0 % 1017,5 hPa 0,0 l/m 0,3 km/h (0 Bft) N-NW 337 0 min 0,0 UV-I 7,0 C 10,2 C 0,0 km/h (0 Bft)
18.10.2012 20:50 9,9 C 16,6 C 10,3 C 10,2 C 10,2 C 0,3 C 83 % 86 % 0 % 1017,5 hPa 0,0 l/m 0,2 km/h (0 Bft) S-SO 157 0 min 0,0 UV-I 7,2 C 10,2 C 0,0 km/h (0 Bft)
18.10.2012 20:55 9,8 C 16,6 C 10,4 C 10,2 C 10,2 C 0,4 C 83 % 86 % 0 % 1017,5 hPa 0,0 l/m 0,3 km/h (0 Bft) W-NW 292 0 min 0,0 UV-I 7,1 C 10,2 C 0,0 km/h (0 Bft)
18.10.2012 21:00 9,9 C 16,6 C 10,4 C 10,2 C 10,2 C 0,3 C 82 % 86 % 0 % 1017,5 hPa 0,0 l/m 0,3 km/h (0 Bft) W 270 0 min 0,0 UV-I 7,0 C 10,2 C 0,0 km/h (0 Bft)
18.10.2012 21:05 9,8 C 16,6 C 10,3 C 10,1 C 10,1 C 0,3 C 82 % 86 % 0 % 1017,4 hPa 0,0 l/m 0,2 km/h (0 Bft) S-SO 157 0 min 0,0 UV-I 6,9 C 10,1 C 0,0 km/h (0 Bft)
18.10.2012 21:10 9,8 C 16,6 C 10,2 C 9,9 C 9,9 C 0,1 C 83 % 85 % 0 % 1017,4 hPa 0,0 l/m 0,0 km/h (0 Bft) N-NW 337 0 min 0,0 UV-I 7,1 C 9,9 C 0,0 km/h (0 Bft)
18.10.2012 21:15 9,7 C 16,6 C 10,3 C 9,9 C 9,9 C 0,2 C 83 % 86 % 0 % 1017,4 hPa 0,0 l/m 0,0 km/h (0 Bft) W 270 0 min 0,0 UV-I 7,0 C 9,9 C 0,0 km/h (0 Bft)
18.10.2012 21:20 9,7 C 16,6 C 10,0 C 9,9 C 9,9 C 0,2 C 83 % 85 % 0 % 1017,4 hPa 0,0 l/m 0,0 km/h (0 Bft) N-NO 22 0 min 0,0 UV-I 7,0 C 9,9 C 0,0 km/h (0 Bft)
18.10.2012 21:25 9,6 C 16,6 C 10,1 C 9,8 C 9,8 C 0,2 C 83 % 86 % 0 % 1016,8 hPa 0,0 l/m 0,0 km/h (0 Bft) SO 135 0 min 0,0 UV-I 6,9 C 9,8 C 0,0 km/h (0 Bft)
18.10.2012 21:30 9,6 C 16,6 C 10,1 C 9,8 C 9,8 C 0,2 C 83 % 86 % 0 % 1016,8 hPa 0,0 l/m 0,0 km/h (0 Bft) S-SO 157 0 min 0,0 UV-I 6,9 C 9,8 C 0,0 km/h (0 Bft)
18.10.2012 21:35 9,6 C 16,6 C 10,2 C 9,8 C 9,8 C 0,2 C 84 % 87 % 0 % 1016,8 hPa 0,0 l/m 0,0 km/h (0 Bft) O-NO 67 0 min 0,0 UV-I 7,0 C 9,8 C 0,0 km/h (0 Bft)
18.10.2012 21:40 9,6 C 16,7 C 10,3 C 9,9 C 9,9 C 0,3 C 84 % 87 % 0 % 1016,8 hPa 0,0 l/m 0,0 km/h (0 Bft) SO 135 0 min 0,0 UV-I 7,0 C 9,9 C 0,0 km/h (0 Bft)
18.10.2012 21:45 9,6 C 16,6 C 10,1 C 10,0 C 10,0 C 0,4 C 85 % 86 % 0 % 1017,0 hPa 0,0 l/m 0,0 km/h (0 Bft) O-NO 67 0 min 0,0 UV-I 7,2 C 10,0 C 0,0 km/h (0 Bft)
18.10.2012 21:50 9,5 C 16,6 C 10,0 C 10,1 C 10,1 C 0,6 C 85 % 87 % 0 % 1017,0 hPa 0,0 l/m 0,0 km/h (0 Bft) W-SW 247 0 min 0,0 UV-I 7,1 C 10,1 C 0,0 km/h (0 Bft)
18.10.2012 21:55 9,5 C 16,7 C 10,1 C 10,0 C 10,0 C 0,5 C 85 % 87 % 0 % 1017,0 hPa 0,0 l/m 0,0 km/h (0 Bft) NW 315 0 min 0,0 UV-I 7,1 C 10,0 C 0,0 km/h (0 Bft)
18.10.2012 22:00 9,5 C 16,7 C 10,3 C 10,0 C 10,0 C 0,5 C 85 % 88 % 0 % 1017,0 hPa 0,0 l/m 0,0 km/h (0 Bft) SO 135 0 min 0,0 UV-I 7,1 C 10,0 C 0,0 km/h (0 Bft)
18.10.2012 22:05 9,5 C 16,6 C 10,3 C 10,1 C 10,1 C 0,6 C 85 % 88 % 0 % 1016,9 hPa 0,0 l/m 0,0 km/h (0 Bft) SW 225 0 min 0,0 UV-I 7,1 C 10,1 C 0,0 km/h (0 Bft)
18.10.2012 22:10 9,6 C 16,6 C 10,4 C 10,2 C 10,2 C 0,6 C 86 % 88 % 0 % 1016,9 hPa 0,0 l/m 0,2 km/h (0 Bft) S-SW 202 0 min 0,0 UV-I 7,4 C 10,2 C 2,1 km/h (1 Bft)
18.10.2012 22:15 9,7 C 16,6 C 10,5 C 10,4 C 10,4 C 0,7 C 86 % 88 % 0 % 1016,9 hPa 0,0 l/m 0,2 km/h (0 Bft) W 270 0 min 0,0 UV-I 7,5 C 10,4 C 0,0 km/h (0 Bft)
18.10.2012 22:20 9,7 C 16,6 C 10,4 C 10,3 C 10,3 C 0,6 C 86 % 88 % 0 % 1016,9 hPa 0,0 l/m 0,2 km/h (0 Bft) W-SW 247 0 min 0,0 UV-I 7,5 C 10,3 C 0,0 km/h (0 Bft)
18.10.2012 22:25 9,7 C 16,6 C 10,5 C 10,2 C 10,2 C 0,5 C 86 % 88 % 0 % 1017,2 hPa 0,0 l/m 0,0 km/h (0 Bft) W-SW 247 0 min 0,0 UV-I 7,5 C 10,2 C 0,0 km/h (0 Bft)
18.10.2012 22:30 9,6 C 16,6 C 10,5 C 10,2 C 10,2 C 0,6 C 86 % 88 % 0 % 1017,2 hPa 0,0 l/m 0,0 km/h (0 Bft) N-NO 22 0 min 0,0 UV-I 7,4 C 10,2 C 0,0 km/h (0 Bft)
18.10.2012 22:35 9,7 C 16,6 C 10,4 C 10,3 C 10,3 C 0,6 C 86 % 88 % 0 % 1017,2 hPa 0,0 l/m 0,0 km/h (0 Bft) S 180 0 min 0,0 UV-I 7,5 C 10,3 C 0,0 km/h (0 Bft)
18.10.2012 22:40 9,7 C 16,6 C 10,5 C 10,3 C 10,3 C 0,6 C 86 % 88 % 0 % 1017,2 hPa 0,0 l/m 0,0 km/h (0 Bft) W-SW 247 0 min 0,0 UV-I 7,5 C 10,3 C 0,0 km/h (0 Bft)
18.10.2012 22:45 9,7 C 16,6 C 10,5 C 10,2 C 10,2 C 0,5 C 86 % 88 % 0 % 1016,9 hPa 0,0 l/m 0,0 km/h (0 Bft) S-SW 202 0 min 0,0 UV-I 7,5 C 10,2 C 0,0 km/h (0 Bft)
18.10.2012 22:50 9,7 C 16,6 C 10,5 C 10,2 C 10,2 C 0,5 C 86 % 88 % 0 % 1016,9 hPa 0,0 l/m 0,0 km/h (0 Bft) S-SW 202 0 min 0,0 UV-I 7,5 C 10,2 C 0,0 km/h (0 Bft)
18.10.2012 22:55 9,6 C 16,6 C 10,4 C 10,1 C 10,1 C 0,5 C 86 % 88 % 0 % 1016,9 hPa 0,0 l/m 0,0 km/h (0 Bft) O-SO 112 0 min 0,0 UV-I 7,4 C 10,1 C 0,0 km/h (0 Bft)
18.10.2012 23:00 9,5 C 16,6 C 10,1 C 9,9 C 9,9 C 0,4 C 86 % 88 % 0 % 1016,9 hPa 0,0 l/m 0,0 km/h (0 Bft) S-SW 202 0 min 0,0 UV-I 7,3 C 9,9 C 0,0 km/h (0 Bft)
18.10.2012 23:05 9,5 C 16,6 C 10,0 C 9,8 C 9,8 C 0,3 C 86 % 88 % 0 % 1016,8 hPa 0,0 l/m 0,0 km/h (0 Bft) O-NO 67 0 min 0,0 UV-I 7,3 C 9,8 C 0,0 km/h (0 Bft)
18.10.2012 23:10 9,3 C 16,6 C 9,9 C 9,6 C 9,6 C 0,3 C 86 % 88 % 0 % 1016,8 hPa 0,0 l/m 0,0 km/h (0 Bft) O-NO 67 0 min 0,0 UV-I 7,1 C 9,6 C 0,0 km/h (0 Bft)
18.10.2012 23:15 9,2 C 16,6 C 9,9 C 9,5 C 9,5 C 0,3 C 86 % 88 % 0 % 1016,8 hPa 0,0 l/m 0,0 km/h (0 Bft) O-SO 112 0 min 0,0 UV-I 7,0 C 9,5 C 0,0 km/h (0 Bft)
18.10.2012 23:20 9,1 C 16,6 C 9,7 C 9,2 C 9,2 C 0,1 C 86 % 88 % 0 % 1016,8 hPa 0,0 l/m 0,0 km/h (0 Bft) W 270 0 min 0,0 UV-I 6,9 C 9,2 C 0,0 km/h (0 Bft)
18.10.2012 23:25 9,1 C 16,6 C 9,7 C 9,1 C 9,1 C 0,0 C 86 % 88 % 0 % 1016,9 hPa 0,0 l/m 0,0 km/h (0 Bft) N-NW 337 0 min 0,0 UV-I 6,9 C 9,1 C 0,0 km/h (0 Bft)
18.10.2012 23:30 9,0 C 16,6 C 9,5 C 9,1 C 9,1 C 0,1 C 86 % 88 % 0 % 1016,9 hPa 0,0 l/m 0,0 km/h (0 Bft) O-NO 67 0 min 0,0 UV-I 6,8 C 9,1 C 0,0 km/h (0 Bft)
18.10.2012 23:35 8,9 C 16,6 C 9,2 C 9,1 C 9,1 C 0,2 C 86 % 87 % 0 % 1016,9 hPa 0,0 l/m 0,0 km/h (0 Bft) O-NO 67 0 min 0,0 UV-I 6,7 C 9,1 C 0,0 km/h (0 Bft)
18.10.2012 23:40 8,8 C 16,6 C 9,3 C 8,9 C 8,9 C 0,1 C 86 % 88 % 0 % 1016,9 hPa 0,0 l/m 0,0 km/h (0 Bft) NW 315 0 min 0,0 UV-I 6,6 C 8,9 C 0,0 km/h (0 Bft)
18.10.2012 23:45 8,7 C 16,6 C 9,2 C 8,7 C 8,7 C 0,0 C 86 % 89 % 0 % 1017,3 hPa 0,0 l/m 0,0 km/h (0 Bft) NW 315 0 min 0,0 UV-I 6,5 C 8,7 C 0,0 km/h (0 Bft)
18.10.2012 23:50 8,5 C 16,6 C 9,1 C 8,6 C 8,6 C 0,1 C 86 % 89 % 0 % 1017,3 hPa 0,0 l/m 0,0 km/h (0 Bft) NO 45 0 min 0,0 UV-I 6,3 C 8,6 C 0,0 km/h (0 Bft)
18.10.2012 23:55 8,4 C 16,6 C 9,1 C 8,5 C 8,5 C 0,1 C 87 % 88 % 0 % 1017,3 hPa 0,0 l/m 0,0 km/h (0 Bft) O 90 0 min 0,0 UV-I 6,4 C 8,5 C 0,0 km/h (0 Bft)
_ Min-Zeit 04:15 10:10 04:05 03:25 03:25 00:00 14:25 15:20 00:00 16:25 - 00:00 - - - 00:00 03:35 03:25 00:00
Minimum _ 5,3 C 15,5 C 6,3 C 5,9 C 5,9 C 0,0 C 55 % 64 % 0 % 1014,8 hPa - 0,0 km/h (0 Bft) - - - 0,0 UV-I 3,4 C 5,9 C 0,0 km/h (0 Bft)
_ Max-Zeit 15:25 21:40 15:20 13:30 13:30 13:25 07:00 04:45 12:25 20:45 00:00 16:10 - - 12:46 12:15 14:15 13:30 15:10
Maximum _ 19,4 C 16,7 C 18,3 C 25,1 C 25,1 C 7,3 C 91 % 91 % 100 % 1017,5 hPa 0,0 l/m 5,5 km/h
O-NO (1 Bft)
- - 11 min 1,1 UV-I 10,5 C 25,1 C 11,7 km/h
O (2 Bft)
Durchschnitt _ 11,2 C 16,1 C 11,1 C 12,4 C 12,3 C 1,3 C 77 % 82 % 25 % 1016,1 hPa #0,0 l/m 0,9 km/h (0 Bft) O-NO - #3:55 h 0,7 UV-I 7,1 C 12,3 C 1,2 km/h (1 Bft)
2012 www.wetterstation-wechselburg.de